Content
SEND FEEDBACK

Daily
Averages
Monthly
Summary
United States of America

BURLINGTON, NORTH CAROLINA


Home > North America > United States > North Carolina
Elevation: 194 meters     Latitude: 36 02N     Longitude: 079 28W

WEATHER
 
SELECT A DAY
Number of Records: 171,318;   Date Range: 7/1/98 - 7/28/14
 
SHARE

PRINT THIS DATA

[ ← Previous Day ]
WEATHER ALMANAC - 12 NOVEMBER, 2013
[ Next Day → ]
[ °F ]   °C
Weather ElementAverageHighLow
Temperature4.8 °C14.4 °C (10:54 am)-0.6 °C (11:54 pm)
Dewpoint-0.9 °C2.8 °C (2:54 pm)-8.9 °C (11:54 pm)
Humidity69.4 %85 % (5:54 pm)35 % (10:54 am)
Barometer1023 hPa1030.8 hPa (11:54 pm)1017.6 hPa (5:54 am)
Wind Speed11.9 km/h31.5 km/h (1:54 pm)
Wind Gust44.4 km/h (1:54 pm)
Weather ElementAverage
Visibility15.9 km
Wind DirectionSSE (163.7 °)

Weather ElementTotal
Precipitation3.05 mm
Heating Degree Days11.4 (Base 18.3)
Averaged from 27 records on 12 November, 2013
WEATHER CONDITIONS BREAKOUT
WIND DIRECTION BREAKOUT
WEATHER BY HOUR - 12 NOVEMBER, 2013
[ °F ]   °C
Local TimeTemperatureDewpointHumidityBarometerVisibilityWind DirectionWind SpeedGust SpeedPrecipitationEventsConditions
1:54 AM2.8 °C-1.7 °C73 %1019 hPa16.1 kmCalmClear
2:54 AM0.6 °C-2.2 °C82 %1019 hPa16.1 kmCalmClear
3:54 AM0.6 °C-2.2 °C82 %1017.9 hPa16.1 kmCalmPartly Cloudy
4:54 AM2.2 °C-1.1 °C79 %1017.9 hPa16.1 kmCalmClear
5:54 AM1.7 °C-1.1 °C82 %1017.6 hPa16.1 kmCalmClear
6:54 AM3.3 °C-0.6 °C76 %1017.9 hPa16.1 kmCalmClear
7:54 AM5.6 °C1.7 °C76 %1018.3 hPa16.1 kmWSW (250°)5.6 km/hScattered Clouds
8:54 AM9.4 °C1.1 °C56 %1019 hPa16.1 kmSW (230°)11.1 km/hClear
9:54 AM13.3 °C0.6 °C42 %1019.6 hPa16.1 kmVariable9.3 km/hScattered Clouds
10:54 AM14.4 °C-1.1 °C35 %1020 hPa16.1 kmNorth (360°)11.1 km/hMostly Cloudy
11:54 AM13.9 °C0.6 °C40 %1020 hPa16.1 kmNorth (360°)16.7 km/h31.5 km/hMostly Cloudy
12:54 PM13.9 °C1.1 °C42 %1020 hPa16.1 kmNNW (340°)24.1 km/h35.2 km/hOvercast
1:54 PM12.2 °C-0.6 °C41 %1020.7 hPa16.1 kmNNE (20°)31.5 km/h44.4 km/hOvercast
2:54 PM6.7 °C2.8 °C76 %1022.7 hPa12.9 kmNorth (10°)25.9 km/h38.9 km/h0.25 mmRainLight Rain
3:46 PM5 °C1.7 °C79 %1023.4 hPa16.1 kmNNE (30°)18.5 km/h0.25 mmRainLight Rain
3:54 PM5 °C1.7 °C79 %1024.4 hPa16.1 kmNNE (30°)27.8 km/h40.7 km/h0.25 mmRainLight Rain
4:54 PM2.8 °C0 °C82 %1025.4 hPa16.1 kmNNE (20°)13 km/h31.5 km/h0.25 mmRainLight Rain
5:04 PM2.8 °C0 °C82 %1025.4 hPa16.1 kmNorth (10°)16.7 km/h0.25 mmRainLight Rain
5:33 PM2.2 °C-0.6 °C82 %1025.7 hPa16.1 kmNorth (350°)18.5 km/h0.51 mmRainLight Rain
5:52 PM2 °C-1 °C81 %1026.1 hPa14.5 kmNorth (360°)20.4 km/h27.8 km/h0.51 mmSnowLight Snow
5:54 PM1.7 °C-0.6 °C85 %1026.8 hPa14.5 kmNorth (360°)16.7 km/h0.51 mmSnowLight Snow
6:54 PM1.7 °C-0.6 °C85 %1027.4 hPa16.1 kmNE (40°)5.6 km/h0.25 mmOvercast
7:54 PM1.7 °C-0.6 °C85 %1028.1 hPa16.1 kmNW (310°)5.6 km/hOvercast
8:54 PM2.2 °C-2.2 °C73 %1028.4 hPa16.1 kmNNW (330°)13 km/hClear
9:54 PM1.1 °C-5 °C64 %1029.8 hPa16.1 kmNNW (330°)9.3 km/hClear
10:54 PM0 °C-6.7 °C61 %1030.5 hPa16.1 kmNNW (330°)13 km/hClear
11:54 PM-0.6 °C-8.9 °C54 %1030.8 hPa16.1 kmNorth (350°)9.3 km/hClear
Hourly data recorded from KBUY, located 0 kilometers away from Burlington, North Carolina







STORIES FROM OUR PARTNERS